TimeMST,TemperatureF,Dew PointF,Humidity,Sea Level PressureIn,VisibilityMPH,Wind Direction,Wind SpeedMPH,Gust SpeedMPH,PrecipitationIn,Events,Conditions,WindDirDegrees,DateUTC
12:57 AM,28.0,25.0,88,30.20,10.0,West,4.6,-,N/A,,Clear,270,2012-11-19 07:57:00
1:57 AM,28.9,28.0,96,30.19,10.0,Calm,Calm,-,N/A,,Clear,0,2012-11-19 08:57:00
2:57 AM,26.1,24.1,92,30.19,10.0,Calm,Calm,-,N/A,,Clear,0,2012-11-19 09:57:00
3:57 AM,28.0,26.1,92,30.20,10.0,Calm,Calm,-,N/A,,Clear,0,2012-11-19 10:57:00
4:57 AM,25.0,23.0,92,30.23,10.0,Calm,Calm,-,N/A,,Clear,0,2012-11-19 11:57:00
5:57 AM,23.0,19.0,85,30.28,10.0,Calm,Calm,-,N/A,,Clear,0,2012-11-19 12:57:00
6:57 AM,23.0,21.0,92,30.32,10.0,Calm,Calm,-,N/A,,Clear,0,2012-11-19 13:57:00
7:57 AM,27.0,24.1,89,30.33,10.0,Calm,Calm,-,N/A,,Clear,0,2012-11-19 14:57:00
8:57 AM,36.0,30.9,82,30.33,10.0,Calm,Calm,-,N/A,,Clear,0,2012-11-19 15:57:00
9:57 AM,44.1,33.1,65,30.31,10.0,SSW,5.8,-,N/A,,Clear,210,2012-11-19 16:57:00
10:57 AM,48.0,32.0,54,30.30,10.0,SW,5.8,-,N/A,,Clear,220,2012-11-19 17:57:00
11:57 AM,51.1,25.0,36,30.27,10.0,WSW,5.8,-,N/A,,Clear,240,2012-11-19 18:57:00
12:57 PM,54.0,21.0,28,30.23,10.0,SSW,9.2,-,N/A,,Clear,200,2012-11-19 19:57:00
1:57 PM,54.0,15.1,22,30.21,10.0,SSW,10.4,-,N/A,,Clear,210,2012-11-19 20:57:00
2:57 PM,54.0,17.1,23,30.22,10.0,South,9.2,-,N/A,,Clear,190,2012-11-19 21:57:00
3:57 PM,53.1,12.9,20,30.22,10.0,SSW,8.1,-,N/A,,Clear,200,2012-11-19 22:57:00
4:38 PM,51.8,15.8,24,30.34,9.0,SSW,6.9,-,N/A,,Partly Cloudy,210,2012-11-19 23:38:00
4:57 PM,48.9,17.1,28,30.28,10.0,South,5.8,-,N/A,,Clear,190,2012-11-19 23:57:00
5:57 PM,39.0,18.0,43,30.34,10.0,Calm,Calm,-,N/A,,Clear,0,2012-11-20 00:57:00
6:57 PM,34.0,17.1,50,30.38,10.0,Calm,Calm,-,N/A,,Clear,0,2012-11-20 01:57:00
7:57 PM,30.9,18.0,59,30.39,10.0,Calm,Calm,-,N/A,,Clear,0,2012-11-20 02:57:00
8:57 PM,28.0,17.1,63,30.36,10.0,Calm,Calm,-,N/A,,Clear,0,2012-11-20 03:57:00
9:57 PM,27.0,17.1,66,30.33,10.0,Calm,Calm,-,N/A,,Clear,0,2012-11-20 04:57:00
10:57 PM,26.1,17.1,69,30.32,10.0,Calm,Calm,-,N/A,,Clear,0,2012-11-20 05:57:00
11:57 PM,25.0,17.1,72,30.30,10.0,Calm,Calm,-,N/A,,Clear,0,2012-11-20 06:57:00